TimePST,TemperatureF,Dew PointF,Humidity,Sea Level PressureIn,VisibilityMPH,Wind Direction,Wind SpeedMPH,Gust SpeedMPH,PrecipitationIn,Events,Conditions,WindDirDegrees,DateUTC
12:54 AM,48.9,44.1,83,30.16,10.0,SSE,4.6,-,N/A,,Overcast,150,2013-03-04 08:54:00
1:54 AM,48.9,44.1,83,30.15,10.0,East,5.8,-,N/A,,Overcast,100,2013-03-04 09:54:00
2:54 AM,48.0,44.1,86,30.16,9.0,SE,5.8,-,N/A,,Overcast,140,2013-03-04 10:54:00
3:54 AM,48.9,45.0,86,30.16,10.0,Calm,Calm,-,N/A,,Overcast,0,2013-03-04 11:54:00
4:54 AM,48.9,44.1,83,30.17,10.0,Calm,Calm,-,N/A,,Overcast,0,2013-03-04 12:54:00
5:54 AM,48.9,44.1,83,30.17,10.0,WNW,4.6,-,N/A,,Overcast,290,2013-03-04 13:54:00
6:54 AM,48.9,44.1,83,30.18,10.0,Variable,3.5,-,N/A,,Overcast,0,2013-03-04 14:54:00
7:54 AM,48.9,44.1,83,30.19,10.0,WNW,4.6,-,N/A,,Overcast,290,2013-03-04 15:54:00
8:54 AM,48.9,45.0,86,30.20,10.0,Calm,Calm,-,N/A,,Overcast,0,2013-03-04 16:54:00
9:54 AM,50.0,45.0,83,30.20,10.0,West,3.5,-,N/A,,Overcast,270,2013-03-04 17:54:00
10:54 AM,50.0,45.0,83,30.21,10.0,West,8.1,-,N/A,,Overcast,260,2013-03-04 18:54:00
11:54 AM,50.0,45.0,83,30.19,10.0,WNW,8.1,-,N/A,,Overcast,290,2013-03-04 19:54:00
12:54 PM,51.1,45.0,80,30.17,10.0,WNW,6.9,-,N/A,,Overcast,290,2013-03-04 20:54:00
1:54 PM,51.1,45.0,80,30.15,10.0,West,6.9,-,N/A,,Overcast,280,2013-03-04 21:54:00
2:54 PM,51.1,44.1,77,30.14,10.0,WNW,6.9,-,N/A,,Overcast,300,2013-03-04 22:54:00
3:54 PM,51.1,43.0,74,30.14,10.0,WSW,9.2,-,N/A,,Overcast,250,2013-03-04 23:54:00
4:47 PM,51.8,42.8,71,30.11,10.0,WSW,10.4,-,N/A,,Scattered Clouds,240,2013-03-05 00:47:00
4:54 PM,51.1,42.1,71,30.15,10.0,West,11.5,-,N/A,,Mostly Cloudy,260,2013-03-05 00:54:00
5:54 PM,48.9,42.1,77,30.15,10.0,WSW,8.1,-,N/A,,Overcast,240,2013-03-05 01:54:00
6:54 PM,48.0,41.0,77,30.14,10.0,SSE,3.5,-,N/A,,Overcast,160,2013-03-05 02:54:00
7:27 PM,46.4,41.0,81,30.09,10.0,SE,3.5,-,N/A,,Scattered Clouds,130,2013-03-05 03:27:00
7:54 PM,46.0,39.9,79,30.13,10.0,Calm,Calm,-,N/A,,Clear,0,2013-03-05 03:54:00
8:54 PM,44.1,39.9,85,30.13,10.0,Calm,Calm,-,N/A,,Clear,0,2013-03-05 04:54:00
9:54 PM,42.1,37.9,85,30.13,10.0,Calm,Calm,-,N/A,,Clear,0,2013-03-05 05:54:00
11:54 PM,48.0,43.0,83,30.13,10.0,South,4.6,-,N/A,,Overcast,180,2013-03-05 07:54:00